Wind_Speed
29 30 31 31 32 33 34 35 35 36 37 38 38 38 38 38 39 39 39 40 40 41 42 42 41 41 41 42 43 44 44 44 44 43 42 41 39 37
31 31 32 32 33 34 35 36 37 37 38 41 41 42 41 41 41 42 42 42 42 43 43 43 43 43 42 43 44 44 44 44 44 44 44 43 42 40
33 33 33 32 32 33 33 34 35 36 37 39 42 43 44 44 43 44 44 45 45 45 45 45 45 45 44 44 45 45 45 45 45 46 45 45 45 43
34 34 33 33 32 32 32 33 34 34 35 36 39 41 43 44 44 45 45 46 47 47 47 47 47 47 47 46 45 46 45 46 46 47 47 47 46 45
35 35 34 33 32 32 32 32 33 33 33 34 36 38 40 42 43 44 45 46 46 47 48 48 48 48 48 48 47 47 46 46 46 48 49 48 48 47
36 35 34 33 32 32 31 31 31 31 32 32 33 36 38 40 40 42 43 44 46 47 48 49 49 49 49 49 49 48 48 47 46 47 49 49 49 49
37 36 35 33 33 32 31 31 30 30 31 32 32 34 36 38 39 40 41 42 44 46 47 49 50 50 50 50 50 49 48 48 48 48 49 49 50 50
37 36 35 34 33 32 31 31 30 30 31 31 31 32 34 36 37 38 40 41 42 45 46 48 50 51 51 51 51 50 50 49 49 49 48 49 50 50
38 37 35 35 33 32 32 31 31 31 31 30 30 31 32 34 35 37 38 40 41 43 45 45 48 49 51 51 52 52 51 50 49 49 48 49 50 51
38 37 36 35 34 33 32 32 31 31 31 31 30 31 32 34 35 36 37 38 40 42 44 44 47 48 49 50 51 51 51 51 50 49 48 49 50 51
39 37 36 35 34 33 32 32 31 32 31 31 31 31 32 33 35 35 36 37 38 41 43 44 46 48 49 50 50 50 51 51 51 50 48 49 50 51
39 38 36 35 34 33 32 31 31 31 31 31 31 31 32 33 34 35 35 36 37 39 43 44 46 47 48 49 50 50 50 51 51 51 49 48 50 51
39 38 37 35 34 33 32 31 31 30 30 31 31 31 32 32 33 35 35 36 37 38 41 44 45 47 48 48 50 50 50 49 50 51 50 49 50 51
39 37 36 35 34 33 32 31 31 30 30 30 31 31 32 33 32 33 35 36 37 38 41 43 44 46 47 48 49 50 50 49 49 50 50 50 49 50
39 37 36 35 34 33 32 31 31 30 30 30 30 31 32 32 33 33 34 35 36 37 39 42 43 45 46 47 48 49 50 50 48 48 51 51 50 49
38 37 35 35 34 33 32 31 31 30 30 30 30 30 31 31 32 33 34 35 35 36 38 41 43 45 46 46 47 48 49 49 48 48 49 50 51 50
39 37 35 34 34 32 31 30 30 30 29 29 28 28 29 30 30 32 32 34 35 36 38 40 42 44 45 47 47 47 46 46 47 48 48 49 50 51
39 37 36 34 33 32 31 30 30 29 28 28 28 28 28 29 29 31 31 32 33 34 37 39 42 44 45 46 47 46 45 44 45 46 47 47 49 50
39 38 36 34 33 31 30 29 29 28 27 27 26 27 27 28 28 29 30 30 31 33 35 38 40 42 44 45 45 45 44 44 44 44 45 46 47 49
39 37 35 34 32 31 29 29 28 28 27 27 27 27 27 26 27 27 28 28 29 31 33 35 37 40 42 44 46 45 45 44 44 43 44 45 47 48
38 36 34 33 32 30 29 28 28 28 27 27 26 26 26 26 25 25 26 26 28 29 31 33 36 39 41 43 45 44 44 44 43 43 43 44 46 48
36 34 33 32 30 29 28 28 28 27 27 27 26 25 25 25 24 23 23 24 25 27 29 32 35 37 39 41 42 43 44 44 44 44 43 42 43 45
34 33 31 31 30 29 28 28 28 28 27 26 25 24 24 23 22 22 21 21 23 25 27 30 33 35 38 40 41 42 42 42 44 45 43 43 43 44
Wind_Direction
308 304 299 295 289 284 279 273 269 265 264 262 259 256 253 251 249 247 245 243 242 241 240 239 238 236 235 234 234 234 233 232 232 232 233 233 233 235
312 308 304 299 293 288 283 277 272 266 263 262 260 256 253 251 250 248 245 244 242 241 240 238 238 237 236 235 234 234 234 233 232 233 232 232 232 234
314 312 308 303 298 293 288 283 276 270 265 262 260 257 255 252 249 248 246 244 243 241 240 238 237 237 236 236 235 235 234 233 233 233 232 232 232 233
315 313 311 307 301 296 291 286 281 275 269 264 261 259 256 253 250 248 247 245 243 242 241 239 238 237 237 236 236 235 235 234 233 232 232 232 232 232
315 314 311 308 303 298 293 288 284 279 273 268 264 261 258 255 252 249 247 245 244 243 241 240 239 238 237 236 236 235 234 234 233 232 232 231 231 232
315 314 311 307 303 298 294 290 285 280 276 272 267 262 259 257 254 250 247 245 243 242 241 240 239 238 237 236 235 234 234 233 233 232 231 231 231 231
316 314 310 306 302 298 294 290 286 281 277 274 269 265 261 258 255 251 248 246 244 243 241 240 239 237 236 236 235 234 233 232 232 232 232 231 230 229
315 313 310 305 301 298 294 290 286 282 279 275 272 267 263 260 256 253 249 247 245 243 241 240 239 237 236 235 234 233 232 232 231 231 231 230 229 228
315 313 309 304 301 298 294 290 286 282 279 276 273 269 265 261 257 254 251 248 245 245 242 239 238 236 236 234 233 232 232 231 230 230 230 229 227 226
314 312 309 304 300 297 294 290 286 283 280 277 274 270 266 262 259 256 253 250 247 245 243 239 238 235 234 232 232 231 231 230 229 229 229 228 227 226
313 311 308 304 300 297 294 290 286 283 281 278 274 270 267 264 262 259 255 251 247 245 243 239 237 235 232 231 230 229 228 228 228 228 228 227 226 226
312 310 307 303 299 297 294 291 287 284 282 279 274 271 268 265 263 260 257 253 249 246 244 240 236 234 231 229 228 227 227 226 227 227 226 226 224 224
311 309 306 303 300 297 295 292 288 285 283 280 276 272 269 267 264 262 258 254 250 246 244 240 235 233 231 228 228 226 226 226 226 225 224 225 224 224
309 307 304 302 300 298 295 293 290 287 284 281 277 273 270 268 266 263 260 256 251 247 243 240 236 233 230 227 226 226 225 225 224 224 223 223 223 223
307 305 303 300 299 297 295 293 291 288 286 283 277 274 272 269 268 265 261 257 252 247 242 238 235 232 228 226 225 224 224 224 223 223 221 221 221 222
305 303 302 300 298 297 295 293 292 290 287 283 279 275 273 271 268 266 262 257 252 247 242 238 233 230 228 225 223 222 222 222 222 222 221 220 220 220
301 301 300 299 298 296 295 294 293 291 288 285 280 277 275 273 270 267 263 259 254 247 242 237 233 230 227 224 222 221 221 220 221 221 219 219 219 220
298 299 298 297 297 295 294 293 294 292 289 286 283 279 276 274 272 269 265 260 253 247 241 237 233 230 226 224 222 222 221 220 220 219 218 218 218 219
294 296 295 295 295 294 293 293 293 292 289 287 284 280 277 275 273 270 266 259 252 245 240 236 233 228 225 223 222 221 219 219 220 219 219 217 216 216
290 291 292 292 292 292 292 292 291 290 289 287 285 281 278 276 275 271 265 259 250 244 238 233 230 226 223 221 220 220 219 218 219 219 219 218 215 215
286 287 288 289 290 290 289 289 290 289 288 288 286 282 278 277 276 271 264 257 249 242 235 230 228 224 222 220 219 219 218 218 217 217 216 215 213 214
282 284 285 286 287 287 287 287 288 288 288 288 287 283 279 276 274 270 263 257 248 240 233 229 226 223 221 219 218 217 217 217 217 217 215 213 212 212
278 280 281 282 284 285 286 287 288 288 287 287 286 282 278 275 272 267 261 255 247 239 232 227 224 222 220 219 217 217 217 217 216 216 216 215 214 212
Height
5802 5799 5796 5793 5791 5789 5788 5788 5788 5788 5787 5787 5788 5789 5790 5792 5794 5796 5798 5800 5803 5806 5809 5812 5816 5820 5824 5828 5833 5838 5843 5848 5853 5858 5863 5868 5873 5877
5794 5790 5787 5784 5781 5778 5777 5776 5775 5776 5775 5774 5775 5776 5778 5780 5782 5784 5787 5789 5792 5795 5798 5802 5806 5810 5814 5818 5823 5828 5833 5838 5843 5849 5854 5859 5864 5869
5786 5781 5778 5774 5771 5768 5765 5763 5762 5762 5763 5762 5762 5763 5765 5767 5770 5772 5774 5777 5780 5783 5787 5791 5795 5799 5803 5808 5812 5817 5823 5828 5833 5839 5844 5849 5855 5860
5777 5773 5769 5765 5761 5758 5755 5753 5751 5750 5750 5750 5749 5750 5751 5753 5756 5759 5762 5765 5768 5771 5775 5779 5783 5788 5792 5797 5801 5807 5812 5817 5822 5828 5834 5840 5845 5850
5769 5764 5760 5755 5751 5748 5745 5742 5740 5739 5738 5738 5737 5737 5738 5740 5742 5745 5748 5752 5755 5758 5762 5767 5771 5776 5780 5785 5790 5795 5801 5806 5811 5817 5823 5829 5834 5840
5760 5756 5751 5746 5742 5738 5735 5732 5730 5728 5727 5727 5726 5726 5726 5727 5729 5732 5735 5738 5742 5745 5749 5753 5758 5763 5768 5774 5779 5784 5789 5795 5800 5806 5812 5818 5824 5830
5751 5746 5742 5737 5733 5729 5726 5723 5720 5718 5717 5716 5715 5715 5715 5715 5717 5719 5722 5725 5729 5732 5736 5741 5745 5751 5755 5761 5766 5772 5777 5783 5789 5794 5800 5806 5813 5819
5743 5737 5732 5728 5724 5720 5716 5713 5711 5709 5707 5705 5705 5704 5704 5704 5705 5707 5710 5713 5717 5720 5723 5727 5732 5737 5742 5748 5753 5759 5765 5771 5777 5783 5789 5795 5802 5808
5733 5728 5723 5718 5714 5710 5707 5704 5701 5698 5697 5695 5694 5693 5693 5693 5694 5696 5698 5700 5704 5706 5710 5715 5718 5724 5729 5735 5741 5747 5753 5759 5765 5771 5778 5784 5790 5797
5724 5719 5713 5708 5704 5701 5697 5694 5691 5688 5686 5685 5684 5683 5682 5682 5683 5684 5685 5688 5692 5693 5696 5702 5705 5710 5716 5722 5728 5734 5740 5747 5753 5760 5766 5772 5779 5786
5714 5709 5704 5699 5694 5691 5688 5684 5681 5678 5676 5675 5674 5672 5671 5671 5671 5672 5674 5676 5679 5681 5683 5688 5693 5697 5703 5709 5715 5721 5728 5735 5741 5748 5754 5761 5768 5774
5704 5698 5694 5689 5685 5681 5678 5674 5671 5669 5666 5664 5663 5662 5661 5660 5660 5661 5662 5664 5666 5669 5670 5674 5679 5683 5691 5697 5702 5709 5715 5722 5729 5736 5743 5749 5756 5763
5694 5688 5683 5679 5675 5671 5668 5664 5661 5659 5657 5654 5652 5651 5650 5649 5649 5649 5650 5652 5654 5657 5658 5661 5667 5671 5678 5685 5690 5697 5703 5710 5717 5724 5731 5738 5745 5752
5684 5679 5674 5669 5665 5662 5658 5655 5652 5649 5647 5644 5642 5640 5639 5638 5638 5638 5639 5640 5642 5644 5646 5649 5655 5660 5666 5673 5679 5685 5692 5698 5705 5712 5719 5727 5733 5741
5674 5669 5664 5660 5656 5652 5648 5645 5642 5639 5636 5634 5632 5630 5629 5628 5627 5627 5627 5628 5630 5632 5634 5638 5642 5647 5654 5661 5667 5673 5680 5687 5694 5701 5708 5715 5723 5730
5663 5658 5654 5650 5646 5642 5639 5635 5632 5629 5626 5624 5622 5620 5618 5617 5616 5616 5616 5616 5618 5621 5623 5626 5630 5636 5642 5648 5655 5662 5669 5676 5683 5690 5697 5704 5712 5720
5652 5648 5644 5640 5636 5632 5629 5625 5622 5619 5616 5613 5611 5610 5608 5607 5606 5605 5605 5605 5607 5609 5611 5614 5619 5624 5630 5637 5644 5651 5658 5665 5672 5679 5686 5693 5701 5709
5641 5637 5633 5630 5626 5622 5619 5616 5612 5609 5606 5604 5602 5600 5598 5597 5595 5594 5594 5594 5595 5597 5600 5603 5607 5613 5619 5627 5634 5641 5648 5655 5661 5668 5675 5683 5691 5699
5629 5626 5623 5619 5616 5612 5609 5606 5603 5600 5597 5595 5593 5591 5589 5587 5586 5584 5583 5583 5585 5587 5589 5592 5597 5602 5609 5617 5624 5630 5637 5644 5651 5658 5665 5673 5681 5689
5618 5615 5612 5609 5605 5603 5600 5597 5594 5591 5589 5586 5584 5582 5580 5578 5576 5575 5574 5574 5575 5577 5579 5583 5587 5592 5599 5606 5612 5619 5627 5634 5641 5648 5656 5663 5671 5679
5606 5603 5601 5598 5595 5593 5590 5588 5585 5582 5580 5577 5575 5573 5571 5569 5567 5566 5565 5565 5566 5568 5571 5574 5578 5583 5589 5596 5604 5612 5618 5625 5632 5639 5646 5654 5661 5669
5594 5592 5589 5587 5585 5583 5581 5578 5576 5573 5571 5568 5566 5564 5562 5560 5559 5558 5557 5557 5558 5560 5563 5566 5570 5575 5581 5588 5595 5602 5609 5616 5623 5629 5637 5645 5652 5661
5582 5580 5579 5577 5575 5573 5571 5569 5566 5564 5561 5559 5557 5555 5553 5552 5551 5550 5550 5550 5551 5553 5556 5559 5563 5568 5574 5580 5587 5593 5600 5607 5614 5621 5629 5636 5643 5651